Regional Weather Roundup
Issued by NWS Green Bay, WI

Home | Current Version | Previous Version | Graphics & Text | Print | Product List | Glossary Off
Versions: 1 2 3 4 5 6 7 8 9 10 11 12 13 14 15 16 17 18 19 20 21 22 23 24 25 26 27 28 29 30 31 32 33 34 35 36 37 38 39 40 41 42 43 44 45 46 47 48 49 50

000
ASUS43 KGRB 230911
RWRGRB

NORTH-CENTRAL AND NORTHEAST WISCONSIN REGIONAL WEATHER ROUNDUP
NATIONAL WEATHER SERVICE GREEN BAY WI
400 AM CDT TUE MAY 23 2017

WIZ005-009-010>012-018-019-231000-
NORTH CENTRAL WISCONSIN

CITY           SKY/WX    TMP DP  RH WIND       PRES   REMARKS
IRONWOOD       CLOUDY    45  44  97 CALM      29.82R
MANITOWISH WTR CLOUDY    38  38 100 CALM      29.81S FOG
ARBOR VITAE    CLOUDY    42  40  96 CALM      29.81R
EAGLE RIVER    CLOUDY    40  40 100 CALM      29.81S FOG
LAND O LAKES   CLOUDY    40  40 100 CALM      29.83S
RHINELANDER    CLOUDY    45  43  93 NE3       29.81F
PHILLIPS       CLOUDY    40  40 100 CALM      29.80S
ANTIGO         CLOUDY    47  44  90 CALM      29.80F
TOMAHAWK       CLOUDY    41  40  97 CALM      29.81S
MERRILL        RAIN      45  45 100 E3        29.80F
$$

WIZ013-073-231000-
NORTHEAST WISCONSIN

CITY           SKY/WX    TMP DP  RH WIND       PRES   REMARKS
IRON MOUNTAIN  CLOUDY    35  32  88 CALM      29.81S FOG
MARINETTE      CLOUDY    43  42  97 CALM      29.81F
OCONTO           N/A     41  41  99 CALM      29.79F
$$

WIZ017-030-035>037-045-231000-
CENTRAL WISCONSIN

CITY           SKY/WX    TMP DP  RH WIND       PRES   REMARKS
MEDFORD        DRIZZLE   47  44  89 NE3       29.78F
WAUSAU         LGT RAIN  47  46  97 E5        29.78F
MOSINEE        LGT RAIN  46  46 100 NE5       29.79F
MARSHFIELD     CLOUDY    48  46  93 NE9       29.75F
WISC RAPIDS    CLOUDY    51  48  89 E9G17     29.76F
STEVENS POINT  LGT RAIN  47  47 100 NE9       29.78F
WAUPACA        CLOUDY    52  48  84 NE7       29.78F
SHAWANO        CLOUDY    52  46  81 NE8       29.79F
CLINTONVILLE   LGT RAIN  50  45  81 NE3       29.78F
WAUTOMA        CLOUDY    51  50  96 N7        29.76S
$$

WIZ038-039-048-051-231000-
FOX VALLEY

CITY           SKY/WX    TMP DP  RH WIND       PRES   REMARKS
NWS GREEN BAY  CLOUDY    52  46  80 E8        29.78F
APPLETON       CLOUDY    52  43  71 E9        29.75F
OSHKOSH        CLOUDY    57  54  89 E6        29.74F
FOND DU LAC    CLOUDY    56  52  86 E7        29.75F
$$

WIZ022-050-052-231000-
EAST CENTRAL WISCONSIN

CITY           SKY/WX    TMP DP  RH WIND       PRES   REMARKS
EPHRAIM        FAIR      45  44  94 SE3       29.80F
WASHINGTON ISL FAIR      36  36 100 CALM      29.80F FOG
STURGEON BAY   PTCLDY    48  44  86 E5        29.81F
MANITOWOC      CLOUDY    51  46  83 CALM      29.81S
SHEBOYGAN      CLOUDY    54  52  93 CALM      29.78F
$$

LMZ563-521-522-541>543-231000-
LAKESHORE

STATION/POSITION TIME  TEMP    WIND        PRES    VSBY  WAVE
                       AIR SEA DIR/SP/G                  HT/PER
                 (UTC) (F)     (DEG/KT/KT) (MB)    (MI)  (FT/S)
SHEBOYGAN LKSHOR 0900   49      30/  7/  7 1008.5F
KEWAUNEE LKSHORE 0848   49      50/  3/  5 1009.0F
NORTHPORT PIER   0840   44     210/  1/  2 1009.5F
N MID LAKE BUOY  0850   41 38  300/  2/  4 1010.8F         2/ 5
SISTER BAY LKSHO 0806   43        CALM       N/A
CHAMBERS ISLAND  0830   41        CALM     1009.1F
MENOMINEE LKSHOR 0848           50/  3/  4 1008.6F
$$



USA.gov is the U.S. government's official web portal to all federal, state and local government web resources and services.